SCP
0 0 0 0 0 0 0 0 0 0 1 1 1 1 1 1 1 1 1 1 1 1 2 2 2 3 4 4 5 4 4 4 4 4 4 4 5 5 4 4 3 3 2 2
0 0 0 0 0 0 0 0 0 0 1 1 1 1 1 1 1 1 1 2 2 2 2 2 3 3 4 5 5 5 5 5 5 5 5 5 5 5 5 4 3 3 2 2
1 0 0 0 0 0 0 0 0 1 1 1 1 1 1 1 1 1 2 2 3 3 3 3 3 4 5 5 5 5 5 5 6 6 5 5 5 6 6 5 4 3 2 2
1 1 0 0 0 0 0 1 1 1 1 1 1 1 1 1 1 1 2 2 3 4 4 3 3 4 5 5 5 5 5 5 6 5 5 5 6 6 6 6 5 3 2 2
1 1 0 0 1 1 1 1 1 1 1 1 1 1 1 1 1 1 2 2 3 3 3 3 2 3 4 5 5 5 5 5 5 5 4 5 5 6 6 5 4 3 2 2
1 1 1 1 1 1 1 1 1 1 1 1 1 1 1 1 1 1 2 2 2 2 2 2 3 3 3 4 5 5 5 5 5 5 4 4 4 5 4 4 3 2 2 2
1 1 1 1 1 1 1 1 1 1 1 1 1 1 1 1 1 1 1 1 2 2 2 2 3 3 3 3 3 3 4 4 4 4 3 3 3 3 3 3 2 2 2 2
1 1 1 1 1 1 1 1 1 1 1 1 1 1 1 1 1 1 1 1 1 2 2 2 2 2 2 2 2 2 2 2 2 2 2 2 2 2 3 2 2 2 2 2
1 1 1 1 1 1 1 1 1 1 1 1 1 1 1 1 1 1 1 1 1 2 2 2 1 2 2 2 2 1 1 1 1 1 1 1 1 2 2 2 2 2 2 2
1 1 1 1 1 1 1 1 1 1 1 1 1 1 1 1 1 1 1 1 1 1 1 1 1 1 1 1 1 1 1 1 1 1 1 1 1 2 2 2 1 2 2 3
1 1 1 1 1 1 1 1 1 1 1 1 1 1 1 1 1 1 1 0 1 1 1 1 1 1 1 1 1 1 1 1 1 1 1 1 1 1 1 1 1 1 2 3
1 1 1 1 1 1 1 1 1 1 1 1 0 1 1 1 1 0 0 0 0 0 0 0 0 0 0 0 0 0 0 0 0 1 1 1 1 1 1 0 0 1 1 1
1 1 1 1 1 1 1 1 1 1 1 0 0 0 0 0 0 0 0 0 0 0 0 0 0 0 0 0 0 0 0 0 0 0 0 0 0 0 0 0 0 0 0 0
1 1 1 1 1 1 1 1 1 1 0 0 0 0 0 0 0 0 0 0 0 0 0 0 0 0 0 0 0 0 0 0 0 0 0 0 0 0 0 0 0 0 0 0
1 1 1 1 1 1 1 0 0 0 0 0 0 0 0 0 0 0 0 0 0 0 0 0 0 0 0 0 0 0 0 0 0 0 0 0 0 0 0 0 0 0 0 0
1 1 1 1 1 1 0 0 0 0 0 0 0 0 0 0 0 0 0 0 0 0 0 0 0 0 0 0 0 0 0 0 0 0 0 0 0 0 0 0 0 0 0 0
1 1 1 1 1 0 0 0 0 0 0 0 0 0 0 0 0 0 0 0 0 0 0 0 0 0 0 0 0 0 0 0 0 0 0 0 0 0 0 0 0 0 0 0
1 1 1 1 0 0 0 0 0 0 0 0 0 0 0 0 0 0 0 0 0 0 0 0 0 0 0 0 0 0 0 0 0 0 0 0 0 0 0 0 0 0 0 0
1 1 0 0 0 0 0 0 0 0 0 0 0 0 0 0 0 0 0 0 0 0 0 0 0 0 0 0 0 0 0 0 0 0 0 0 0 0 0 0 0 0 0 0
0 0 0 0 0 0 0 0 0 0 0 0 0 0 0 0 0 0 0 0 0 0 0 0 0 0 0 0 0 0 0 0 0 0 0 0 0 0 0 0 0 0 0 0
0 0 0 0 0 0 0 0 0 0 0 0 0 0 0 0 0 0 0 0 0 0 0 0 0 0 0 0 0 0 0 0 0 0 0 0 0 0 0 0 0 0 0 0
0 0 0 0 0 0 0 0 0 0 0 0 0 0 0 0 0 0 0 0 0 0 0 0 0 0 0 0 0 0 0 0 0 0 0 0 0 0 0 0 0 0 0 0
0 0 0 0 0 0 0 0 0 0 0 0 0 0 0 0 0 0 0 0 0 0 0 0 0 0 0 0 0 0 0 0 0 0 0 0 0 0 0 0 0 0 0 0
0 0 0 0 0 0 0 0 0 0 0 0 0 0 0 0 0 0 0 0 0 0 0 0 0 0 0 0 0 0 0 0 0 0 0 0 0 0 0 0 0 0 0 0
0 0 0 0 0 0 0 0 0 0 0 0 0 0 0 0 0 0 0 0 0 0 0 0 0 0 0 0 0 0 0 0 0 0 0 0 0 0 0 0 0 0 0 0
0 0 0 0 0 0 0 0 0 0 0 0 0 0 0 0 0 0 0 0 0 0 0 0 0 0 0 0 0 0 0 0 0 0 0 0 0 0 0 0 0 0 0 0
0 0 0 0 0 0 0 0 0 0 0 0 0 0 0 0 0 0 0 0 0 0 0 0 0 0 0 0 0 0 0 0 0 0 0 0 0 0 0 0 0 0 0 0
Wind_Speed
8 5 6 9 9 10 12 12 12 10 8 5 4 3 2 2 4 7 9 11 12 13 13 13 14 14 14 14 14 13 14 14 14 13 12 12 12 11 11 11 11 10 10 10
8 6 7 10 11 11 12 12 13 12 9 3 3 3 3 1 2 5 7 9 10 11 11 12 13 13 13 13 13 13 13 13 13 12 12 12 12 12 11 11 11 10 11 11
8 4 8 11 8 8 8 7 9 9 3 3 3 5 5 4 2 1 2 4 6 7 8 9 10 11 12 12 11 12 12 11 11 12 12 12 12 12 12 11 11 11 11 11
5 5 9 1 2 2 5 4 3 3 2 2 4 5 6 6 5 3 1 1 2 3 4 5 6 8 8 9 10 10 11 11 11 11 11 11 11 11 11 10 10 11 11 12
5 8 7 4 2 1 3 1 3 2 2 2 5 6 7 8 6 5 4 3 2 1 2 3 4 5 7 7 8 9 9 9 10 10 10 10 11 11 10 10 10 10 10 11
6 7 5 3 5 0 4 3 5 3 2 1 3 3 6 7 7 6 6 5 5 4 4 4 3 4 5 6 6 6 6 6 6 7 8 9 9 9 8 8 9 9 10 10
7 7 2 6 2 3 5 4 5 4 4 3 4 6 6 6 8 8 8 7 7 7 7 6 5 4 4 3 2 2 2 3 4 5 6 6 6 7 7 8 8 8 9 9
5 6 1 5 1 2 5 6 5 6 7 8 9 9 8 8 9 9 9 9 9 8 8 8 6 6 5 4 3 2 3 3 3 4 4 4 5 6 6 7 8 8 8 9
1 3 6 4 4 5 5 6 6 7 8 9 10 10 10 9 9 10 10 10 9 10 10 9 9 7 7 5 4 3 2 3 2 2 2 2 4 5 5 6 7 7 7 8
1 4 5 4 4 5 5 7 8 9 9 10 11 10 10 9 9 10 10 9 9 10 10 10 9 9 7 6 5 3 3 2 2 2 1 1 2 3 4 4 5 6 6 7
1 3 4 5 5 7 8 10 11 12 11 11 11 10 9 8 9 9 9 8 8 9 9 9 8 8 7 6 5 4 4 3 2 2 2 0 1 2 3 3 3 5 6 6
2 3 1 5 6 8 10 11 12 13 13 11 11 10 9 8 7 8 8 7 8 8 9 8 7 7 7 6 5 4 4 3 3 2 2 1 1 1 2 3 3 5 7 8
2 3 6 9 9 11 12 13 13 12 12 11 9 8 8 7 7 7 7 7 7 7 6 6 6 7 6 5 5 5 5 4 4 3 3 3 3 4 4 4 8 10 11 12
4 7 10 11 12 12 14 14 13 12 11 9 8 7 7 6 6 6 6 6 5 5 5 5 5 6 5 5 4 4 3 3 3 3 3 4 4 5 5 6 6 6 7 11
6 8 12 13 14 14 13 12 12 10 9 8 7 6 6 5 4 4 4 4 4 4 4 4 4 4 4 4 3 4 4 3 3 4 5 5 5 6 6 7 8 9 9 7
11 13 14 14 14 13 12 11 10 8 7 6 6 5 4 3 2 2 3 3 3 3 3 3 3 3 3 4 4 4 3 3 5 6 7 6 6 7 7 8 9 9 9 10
13 13 13 13 12 11 9 8 7 6 5 4 3 2 2 2 2 2 2 3 3 3 3 3 3 4 5 5 6 6 7 5 5 7 7 7 7 8 8 9 9 10 10 9
12 13 12 11 10 9 8 6 5 4 3 2 2 2 3 3 4 4 4 4 4 4 3 4 5 6 6 6 6 7 8 8 8 8 7 8 8 9 9 10 11 12 10 9
13 12 11 10 8 7 6 4 3 2 2 2 3 3 3 3 4 4 5 5 6 5 4 5 5 7 7 6 7 7 8 9 9 8 8 8 8 9 9 10 10 11 11 10
10 10 9 8 6 5 4 2 2 2 2 3 3 4 4 5 5 5 6 5 4 5 6 6 7 7 7 6 7 9 9 10 10 9 9 9 9 9 10 10 10 10 11 11
7 6 5 4 4 3 3 3 3 3 3 3 4 4 5 5 6 6 6 5 4 5 7 6 6 6 7 8 9 9 9 9 10 10 9 9 9 10 10 10 10 10 10 10
4 4 3 3 2 2 2 2 3 3 3 4 5 5 6 6 6 5 4 4 5 5 7 7 6 8 10 12 10 9 9 10 9 9 9 9 9 9 9 10 10 9 9 10
3 2 2 2 2 2 3 3 3 4 4 5 5 5 6 7 6 6 6 4 6 7 7 6 7 8 12 10 8 9 9 9 9 9 9 8 8 9 9 10 9 9 10 10
3 2 2 3 3 4 4 5 5 4 5 5 4 4 6 6 5 5 6 4 4 6 7 4 4 7 11 8 7 8 8 8 8 9 9 9 8 8 9 9 9 9 10 11
3 3 4 4 5 5 5 5 6 5 6 5 5 5 5 5 6 6 6 7 5 6 7 3 1 6 8 7 7 7 7 7 8 9 9 9 9 9 8 8 9 9 9 8
4 4 4 5 5 5 6 5 5 5 5 5 5 5 5 5 6 5 5 7 8 6 6 5 5 5 6 7 7 7 7 7 7 7 8 9 9 9 8 9 11 8 8 8
5 4 4 5 4 4 5 5 5 5 5 5 6 6 6 6 6 6 6 6 6 5 5 5 6 6 6 6 7 7 7 7 7 8 8 8 7 7 8 9 8 7 8 8
Wind_Direction
264 271 260 256 241 223 236 257 272 281 285 314 351 359 342 237 200 196 192 194 199 201 200 201 202 203 205 205 203 200 198 199 199 198 197 199 198 199 199 201 205 206 211 215
243 235 244 253 250 241 244 256 263 270 276 9 32 31 29 2 214 195 197 199 198 200 202 204 206 206 204 204 200 196 200 202 197 193 193 196 198 198 200 205 211 211 216 220
244 224 252 246 243 244 245 253 267 273 316 51 50 47 34 16 351 241 207 201 200 200 202 204 205 203 202 200 193 193 198 200 194 192 193 196 198 199 203 207 211 215 220 224
250 234 245 227 51 285 266 269 297 317 12 55 78 83 62 33 17 13 21 157 182 195 194 198 199 198 199 192 188 191 196 198 194 195 194 197 201 204 207 211 214 217 222 227
251 244 246 169 150 248 257 211 27 2 53 111 139 136 87 45 32 28 26 33 52 82 142 157 172 179 179 182 181 190 197 198 195 196 196 196 203 207 209 213 218 221 225 229
233 257 256 91 95 34 255 178 66 43 60 125 206 220 78 40 32 37 40 41 42 55 71 85 100 135 153 161 170 186 192 192 188 194 199 202 204 207 207 212 222 228 230 232
235 249 250 75 100 224 252 81 74 65 66 80 68 52 69 55 49 48 50 56 59 58 58 55 63 89 108 116 134 158 168 169 172 185 201 209 209 210 214 217 224 233 241 240
228 240 160 87 161 344 61 96 101 92 87 89 94 92 84 72 64 60 58 57 62 65 60 53 53 73 78 67 51 76 112 132 159 179 200 199 210 215 219 227 229 231 237 246
315 48 71 68 56 73 112 118 112 106 103 106 102 95 88 80 73 66 62 60 62 70 67 59 53 56 64 57 48 57 89 117 132 145 174 206 216 221 224 224 243 247 246 250
142 93 90 87 92 105 110 113 114 111 110 108 102 97 90 83 76 69 62 60 62 68 67 61 54 53 52 48 47 54 58 64 91 109 144 187 239 241 242 244 245 253 259 263
192 106 106 98 99 113 113 113 111 108 105 104 102 96 91 85 79 75 70 63 59 62 65 63 57 53 50 52 52 58 58 54 59 74 75 39 271 306 292 297 313 292 290 289
10 68 52 99 112 126 123 119 115 112 106 101 99 99 94 85 78 74 72 68 65 64 65 64 61 55 48 45 45 47 50 38 30 32 30 347 327 288 231 259 256 249 254 267
17 52 89 110 114 115 116 113 110 105 102 97 90 90 89 86 82 77 72 66 63 62 64 63 60 56 46 39 38 39 33 24 14 10 3 344 331 317 304 258 233 238 241 241
94 112 112 111 111 111 111 109 105 101 96 92 90 86 83 81 77 72 66 62 60 60 60 58 52 47 36 32 29 26 15 29 345 340 333 324 317 307 300 302 300 289 252 233
88 102 111 113 111 107 105 105 102 96 92 86 79 73 70 67 65 64 62 52 47 46 45 40 37 30 13 4 1 346 333 337 339 325 308 307 305 302 301 302 301 301 301 283
103 107 111 110 107 106 106 103 98 92 83 73 64 54 48 46 41 42 38 22 6 15 16 5 358 355 343 331 319 301 292 282 285 299 299 300 301 303 305 306 303 302 301 303
116 114 112 110 108 106 101 96 91 85 76 68 55 30 11 10 11 17 5 1 344 329 324 325 330 333 324 317 310 307 307 297 253 272 289 301 305 305 304 302 300 300 300 308
101 104 107 108 107 103 97 89 78 67 50 26 359 347 346 346 343 343 334 328 317 312 320 331 343 326 311 310 311 308 305 303 302 301 302 301 304 301 299 298 298 298 299 298
98 100 101 100 97 94 89 79 68 49 8 335 331 338 339 338 335 327 319 311 307 311 349 356 340 304 310 321 313 293 296 300 299 298 295 294 286 289 297 300 302 304 304 302
98 99 99 99 97 91 84 74 53 23 355 343 337 340 343 342 335 329 321 309 339 358 349 341 318 313 316 331 323 303 303 302 301 301 301 301 300 302 303 304 305 305 304 303
95 94 92 86 75 57 39 16 357 353 350 341 338 337 337 336 333 328 317 324 13 9 333 308 299 324 336 340 308 299 303 306 307 307 306 305 306 306 305 306 306 305 305 305
82 82 77 63 45 26 12 345 338 340 341 337 336 336 332 329 328 323 326 337 347 11 325 321 340 11 347 317 304 308 311 312 311 310 310 312 312 310 310 310 308 309 308 306
69 65 51 28 4 341 323 321 328 328 326 325 326 329 330 329 325 321 322 351 345 354 322 337 8 353 323 304 309 316 319 319 318 317 318 319 316 314 311 310 310 311 309 308
39 25 9 352 328 307 308 317 318 312 307 301 307 323 318 313 316 324 337 357 353 331 319 9 1 327 304 306 321 327 327 325 324 324 323 320 317 316 315 315 314 312 310 310
356 333 328 320 304 307 309 300 295 293 292 303 316 325 320 327 326 331 328 328 338 318 317 350 347 313 311 333 338 339 336 342 340 330 325 324 321 320 319 319 320 318 317 319
317 307 320 309 312 309 305 307 308 314 319 321 323 329 329 327 324 324 323 326 334 332 325 333 340 331 341 346 347 343 340 338 334 331 332 330 330 333 333 332 328 327 326 325
296 295 285 288 299 312 314 313 314 319 322 323 325 326 322 319 323 330 329 330 334 339 345 350 353 355 354 352 350 348 347 345 344 340 338 339 338 335 333 331 330 330 329 331